Simultaneous Nadir Overpasses (SNOs) Predictions

Prediction of SNOs between METOP-B and TERRA Satellite Orbit:

Table of predicted SNOs for the next 14.0 days since TLE Epoch: 8/20/2025
Index Date (METOP-B) Time (METOP-B) Lat,Lon (METOP-B) SZA (METOP-B ) Date (TERRA) Time (TERRA) Lat,Lon (TERRA) SZA (TERRA ) Distance(km) Time Diff (sec)
1 08/22/2025 23:01:15 77.47,-167.31 65.98 08/22/2025 23:01:23 77.48,-167.22 65.99 2.47 8
2 08/22/2025 23:51:41 -78.12, 3.08 113.38 08/22/2025 23:50:29 -78.12, 3.13 113.38 1.32 72
3 08/25/2025 11:50:19 77.22, -0.70 66.60 08/25/2025 11:51:02 77.22, -0.68 66.60 0.82 43
4 08/25/2025 12:40:45 -77.88, 169.59 112.75 08/25/2025 12:40:08 -77.88, 169.61 112.75 0.38 37
5 08/28/2025 00:42:28 67.61, 146.21 59.91 08/28/2025 00:43:41 67.37, 147.68 59.38 68.21 73
6 08/28/2025 01:29:49 -77.67, -23.67 112.07 08/28/2025 01:29:47 -77.66, -23.75 112.08 2.05 2
7 08/30/2025 14:18:57 -77.28, 142.33 111.54 08/30/2025 14:19:29 -77.28, 142.34 111.54 0.22 32
8 08/30/2025 15:09:22 77.92, -47.43 69.10 08/30/2025 15:08:33 77.92, -47.44 69.09 0.51 49
9 09/02/2025 03:08:05 -76.88, -51.58 111.01 09/02/2025 03:09:11 -76.88, -51.55 111.01 0.87 66



Historial Predications of SNOs between METOP-B and TERRA
